[[{"header":{"parameterUnit":"m.s-1","parameterCategory":1,"la1":30.2991,"la2":30.254,"lo1":-89.0895,"lo2":-89.0444,"dy":0.0017,"dx":0.0017,"nx":28,"ny":28,"refTime":"2024-07-28T09:00:00:Z","depth":0,"parameterNumber":2,"parameterNumberName":"U-component_of_WINDS"},"data":[0,0,0,0,0,0,0,0,0,0,0,0,0,0,0,0,0,0,0,0,0,0,0,0,0,0,0,0,0,0,0,0,0,0,0,0,0,0,0,0,0,0,0,0,0,0,0,0,0,0,0,0,0,0,0,0,0,0,2.7205,2.7206,0,2.7337,2.7339,2.734,2.7329,2.7327,2.7325,2.7323,2.7465,2.7471,2.7476,0,0,0,0,0,0,0,0,0,0,0,0,0,2.6945,2.695,2.7204,2.7206,2.7208,2.7337,2.7339,2.7341,2.733,2.7327,2.7325,2.7322,2.7463,2.747,2.7477,0,0,0,0,0,0,0,0,0,0,0,0,0,2.7066,2.6951,2.7204,2.7218,2.722,2.7337,2.7339,2.7341,2.733,2.7327,2.7324,2.7321,2.7461,2.7469,2.7478,2.7591,0,0,2.7504,2.7507,0,0,0,0,0,0,0,0,2.7059,2.7075,2.7214,2.7217,2.722,2.7313,2.7299,2.7425,2.7331,2.7289,2.7323,2.732,2.7417,2.7429,2.7461,2.7598,2.7604,2.7504,2.7509,2.7513,2.7516,0,0,0,0,0,0,0,2.705,2.7069,2.7257,2.7216,2.722,2.7218,2.7232,2.7323,2.7369,2.7292,2.7291,2.7307,2.7419,2.7453,2.7464,2.7606,2.7504,2.7512,2.7517,2.752,2.784,2.7843,0,0,0,0,0,0,2.7038,2.7063,2.7253,2.7261,2.713,2.7225,2.7241,2.7287,2.7368,2.7377,2.7309,2.7306,2.744,2.7454,2.7469,2.7605,2.7513,2.7521,2.7526,2.7836,2.784,2.7844,0,0,0,0,0,0,2.7033,2.7055,2.7248,2.7162,2.7186,2.7233,2.7285,2.7291,2.7325,2.7381,2.7389,2.7336,2.7438,2.7457,2.756,2.761,2.7525,2.7533,2.7832,2.7838,2.7842,2.7879,0,0,0,0,0,0,2.7025,2.7053,2.7096,2.7163,2.7191,2.7335,2.7288,2.7296,2.7339,2.7336,2.7408,2.7417,2.7437,2.7547,2.7568,2.762,2.7539,2.7828,2.7835,2.7841,2.7874,2.7885,2.7895,0,0,0,0,0,2.7016,2.7103,2.7099,2.7122,2.7245,2.7338,2.7354,2.7374,2.7343,2.7387,2.7422,2.7415,2.7601,2.7558,2.7581,2.7637,2.7825,2.7833,2.784,2.7869,2.7883,2.7894,0,0,0,0,0,0,2.7044,2.7112,2.7108,2.7219,2.7272,2.7336,2.7391,2.7388,2.7453,2.7447,2.7471,2.7487,2.759,2.7624,2.7574,2.775,2.7709,2.7722,2.7723,2.7737,2.7747,2.7736,2.7546,0,0,0,0,0,2.7063,2.7131,2.7188,2.728,2.7307,2.7345,2.7386,2.7396,2.7453,2.7476,2.752,2.7577,2.7648,2.7695,2.7763,2.7879,2.7894,2.7929,2.7939,2.7947,2.7958,2.8019,2.8035,2.7869,2.7869,2.7869,0,0,2.7103,2.7149,2.7191,2.7287,2.733,2.74,2.7364,2.7441,2.7494,2.7489,2.7587,2.7621,2.7686,2.7794,2.7845,2.7826,2.8007,2.7957,2.7963,2.7969,2.8029,2.8044,2.8058,2.7874,2.7873,2.7872,0,0,2.7212,2.7254,2.7334,2.7377,2.7441,2.7465,2.7484,2.7547,2.7569,2.7667,2.7664,2.7728,2.7851,2.7897,2.7936,2.8059,2.8054,2.8082,2.8136,2.8195,2.8208,2.822,2.8262,2.8277,2.8092,2.8092,2.8092,0,2.7254,2.7359,2.7377,2.7453,2.7495,2.7491,2.7572,2.7614,2.7698,2.7727,2.7705,2.7857,2.7901,2.8019,2.8049,2.8082,2.8104,2.8073,2.8205,2.8217,2.8228,2.8268,2.8284,2.8095,2.8095,2.8094,2.8094,0,2.7407,2.748,2.7537,2.7615,2.7664,2.7743,2.7772,2.782,2.7826,2.7852,2.7952,2.8004,2.8082,2.8111,2.8119,2.823,2.8216,2.8199,2.8159,2.8246,2.8284,2.83,2.8099,2.8098,2.8097,2.8096,0,0,2.7538,2.7622,2.7643,2.7677,2.7746,2.7803,2.7882,2.7956,2.7995,2.8053,2.8119,2.8222,2.8206,2.825,2.8263,2.8316,2.8407,2.8292,2.8294,2.831,2.8531,2.8542,2.8559,2.8405,2.8408,2.841,2.8525,0,2.7652,2.7788,2.7805,2.7927,2.7993,2.799,2.8058,2.8108,2.8135,2.8196,2.8227,2.8298,2.8272,2.8299,2.8351,2.8385,2.8452,2.8378,2.8466,2.8469,2.8448,2.858,2.8592,2.8698,2.854,2.8543,2.8545,0,2.7804,2.7862,2.7989,2.8047,2.8075,2.8136,2.8204,2.8263,2.8319,2.8335,2.8383,2.8389,2.847,2.8427,2.8539,2.8488,2.8526,2.8548,2.8553,2.8561,2.8511,2.859,2.8732,2.8747,2.8569,2.8567,2.8565,0,2.7883,2.7995,2.8084,2.8114,2.8184,2.8226,2.8258,2.8311,2.8354,2.8414,2.8442,2.8512,2.855,2.8604,2.8628,2.8595,2.8738,2.8698,2.8753,2.8752,2.8783,2.878,2.8931,2.881,2.881,2.8809,2.8809,0,2.8008,2.8086,2.8121,2.8176,2.8262,2.8281,2.8367,2.8397,2.8444,2.8506,2.8509,2.8566,2.8595,2.8658,2.8678,2.8767,2.8785,2.8799,2.8803,2.8798,2.8796,2.8822,2.8815,2.8814,2.8813,2.8812,2.8811,0,2.8112,2.8138,2.8235,2.8293,2.8309,2.837,2.8419,2.8473,2.8498,2.8576,2.8595,2.8635,2.8709,2.8738,2.883,2.8843,2.8944,2.8943,2.8924,2.8925,2.8978,2.8971,2.915,2.9173,2.9038,2.9039,2.904,0,2.8189,2.8248,2.831,2.835,2.8382,2.8447,2.8489,2.851,2.8555,2.8622,2.8668,2.874,2.8799,2.8916,2.8955,2.9024,2.9024,2.9081,2.9034,2.9026,2.9022,2.9018,2.9023,2.909,2.9091,2.9092,2.9093,0,2.8322,2.8331,2.8391,2.8455,2.8505,2.8557,2.8608,2.8641,2.867,2.872,2.8793,2.8839,2.8929,2.9001,2.9072,2.9106,2.9104,2.9108,2.9124,2.9118,2.9103,2.911,2.8945,2.9103,2.9102,2.9102,2.9101,2.9101,2.8413,2.8464,2.8515,2.8581,2.8621,2.8668,2.872,2.8751,2.8811,2.8885,2.8895,2.8973,2.9027,2.9121,2.9157,2.9219,2.9205,2.9229,2.9234,2.924,2.9242,2.9094,2.9233,2.9233,2.9232,2.9232,2.9232,0,2.8545,2.8576,2.8637,2.8706,2.8758,2.875,2.8805,2.885,2.8918,2.8967,2.9024,2.9107,2.9176,2.9219,2.9289,2.933,2.9331,2.9347,2.9344,2.9351,2.9252,2.923,2.9345,2.9345,2.9345,2.9345,2.9345,2.9345,2.8619,2.8704,2.8719,2.8824,2.8856,2.893,2.8962,2.9006,2.9044,2.9137,2.9193,2.9219,2.9266,2.9338,2.9401,2.9412,2.9437,2.9454,2.9464,2.937,2.9359,2.9347,2.9326,2.946,2.946,2.9557,2.9558,2.9559]},{"header":{"parameterUnit":"m.s-1","parameterCategory":1,"la1":30.2991,"la2":30.254,"lo1":-89.0895,"lo2":-89.0444,"dy":0.0017,"dx":0.0017,"nx":28,"ny":28,"refTime":"2024-07-28T09:00:00:Z","depth":0,"parameterNumber":3,"parameterNumberName":"V-component_of_WINDS"},"data":[0,0,0,0,0,0,0,0,0,0,0,0,0,0,0,0,0,0,0,0,0,0,0,0,0,0,0,0,0,0,0,0,0,0,0,0,0,0,0,0,0,0,0,0,0,0,0,0,0,0,0,0,0,0,0,0,0,0,0.6185,0.6185,0,0.6186,0.6186,0.6186,0.6147,0.6146,0.6145,0.6144,0.6148,0.6149,0.6151,0,0,0,0,0,0,0,0,0,0,0,0,0,0.615,0.615,0.6185,0.6185,0.6185,0.6186,0.6186,0.6186,0.6147,0.6146,0.6145,0.6144,0.6148,0.6149,0.6151,0,0,0,0,0,0,0,0,0,0,0,0,0,0.616,0.6151,0.6185,0.6165,0.6164,0.6186,0.6186,0.6186,0.6148,0.6146,0.6145,0.6143,0.6148,0.6149,0.6151,0.6193,0,0,0.6156,0.6157,0,0,0,0,0,0,0,0,0.6159,0.6161,0.6168,0.6167,0.6165,0.6165,0.6176,0.6189,0.6148,0.6154,0.6144,0.6142,0.6155,0.6156,0.616,0.6193,0.6193,0.6156,0.6157,0.6158,0.6158,0,0,0,0,0,0,0,0.6158,0.6161,0.6185,0.6168,0.6166,0.6157,0.6157,0.6178,0.6164,0.6153,0.615,0.6151,0.6154,0.6159,0.616,0.6193,0.6156,0.6157,0.6158,0.6159,0.6261,0.6263,0,0,0,0,0,0,0.616,0.616,0.6185,0.6185,0.6158,0.6159,0.6159,0.6167,0.6163,0.6161,0.6152,0.6149,0.6157,0.6158,0.616,0.6209,0.6158,0.6159,0.616,0.6259,0.6261,0.6263,0,0,0,0,0,0,0.6159,0.6163,0.6185,0.6172,0.6174,0.6161,0.6171,0.6167,0.6172,0.6162,0.616,0.6159,0.6155,0.6158,0.6185,0.6209,0.616,0.6161,0.6257,0.626,0.6262,0.6308,0,0,0,0,0,0,0.6159,0.6163,0.6178,0.6173,0.6175,0.621,0.6172,0.6169,0.6175,0.617,0.6169,0.6167,0.6154,0.6183,0.6186,0.621,0.6163,0.6255,0.6258,0.6261,0.6304,0.6312,0.6318,0,0,0,0,0,0.6157,0.6191,0.6179,0.6182,0.6194,0.6211,0.6213,0.6197,0.6177,0.6192,0.6186,0.6167,0.6205,0.6186,0.619,0.6214,0.6253,0.6257,0.6261,0.6301,0.631,0.6318,0,0,0,0,0,0,0.6201,0.619,0.6177,0.6209,0.6211,0.6204,0.6224,0.6207,0.6215,0.6211,0.6192,0.6192,0.6223,0.6221,0.6199,0.6255,0.6226,0.6231,0.6255,0.6264,0.627,0.6271,0.6164,0,0,0,0,0,0.6214,0.6228,0.6218,0.6248,0.625,0.6237,0.6244,0.6231,0.6233,0.6234,0.623,0.6233,0.6245,0.6254,0.6265,0.6303,0.6303,0.6322,0.6329,0.6335,0.634,0.636,0.6369,0.6276,0.6276,0.6276,0,0,0.6242,0.6238,0.6248,0.6257,0.6257,0.6273,0.6238,0.6256,0.6268,0.6237,0.6262,0.6259,0.6261,0.6294,0.6308,0.6294,0.6365,0.634,0.6345,0.6346,0.6365,0.6374,0.6382,0.6278,0.6278,0.6278,0,0,0.6301,0.6299,0.6324,0.6324,0.6324,0.6315,0.6321,0.6317,0.6313,0.6338,0.6315,0.6329,0.6352,0.6354,0.6358,0.6417,0.64,0.6422,0.6459,0.6479,0.6486,0.6493,0.6514,0.6522,0.6426,0.6426,0.6426,0,0.6335,0.6357,0.6339,0.6358,0.6363,0.6335,0.6361,0.6362,0.6367,0.6371,0.6354,0.6381,0.6381,0.6414,0.6428,0.6432,0.6439,0.6422,0.6486,0.6493,0.6498,0.6519,0.6527,0.6429,0.6429,0.6428,0.6428,0,0.6401,0.6416,0.6437,0.644,0.6448,0.647,0.6456,0.6465,0.6452,0.6445,0.6471,0.6469,0.6479,0.6486,0.6474,0.6518,0.6509,0.649,0.646,0.651,0.6529,0.6537,0.6433,0.6432,0.6431,0.643,0,0,0.6487,0.648,0.6488,0.649,0.6488,0.65,0.6521,0.653,0.6539,0.6543,0.6561,0.658,0.6562,0.6567,0.6555,0.6572,0.662,0.6551,0.6551,0.6565,0.6669,0.6685,0.6694,0.6608,0.661,0.6611,0.6669,0,0.6545,0.6581,0.6564,0.6602,0.6617,0.659,0.6608,0.661,0.6604,0.6616,0.6609,0.6623,0.6598,0.6601,0.6617,0.6611,0.6641,0.6606,0.6626,0.6627,0.6627,0.6704,0.672,0.6775,0.6677,0.6678,0.6679,0,0.6617,0.6623,0.6662,0.6657,0.6663,0.668,0.6687,0.6699,0.67,0.6694,0.6699,0.6683,0.6704,0.6674,0.6704,0.6681,0.6687,0.6686,0.6688,0.669,0.6657,0.6709,0.6793,0.6801,0.669,0.6689,0.6689,0,0.6677,0.6695,0.6721,0.6723,0.6718,0.6731,0.6729,0.6729,0.6735,0.6742,0.6746,0.6755,0.6761,0.6769,0.6755,0.6735,0.6787,0.6756,0.6784,0.6784,0.6797,0.6796,0.6884,0.68,0.68,0.68,0.68,0,0.6744,0.6769,0.6748,0.6764,0.6792,0.6773,0.6801,0.6796,0.6796,0.6811,0.6788,0.6803,0.6784,0.6798,0.6787,0.6814,0.6816,0.6813,0.681,0.6815,0.6816,0.682,0.6817,0.6802,0.6801,0.6801,0.6801,0,0.6816,0.6803,0.6829,0.6822,0.6821,0.6842,0.6836,0.6851,0.6843,0.6862,0.6866,0.6854,0.6868,0.6855,0.6869,0.6862,0.6898,0.6889,0.6897,0.6895,0.6924,0.6922,0.7018,0.703,0.6938,0.6939,0.694,0,0.686,0.6879,0.6873,0.6881,0.6881,0.6895,0.6901,0.6883,0.6891,0.6894,0.6908,0.6921,0.693,0.6954,0.6947,0.6958,0.6949,0.6982,0.6951,0.6956,0.6951,0.695,0.6952,0.6989,0.699,0.6991,0.6992,0,0.6939,0.6932,0.6942,0.6949,0.6958,0.6963,0.6967,0.6975,0.6957,0.6967,0.6981,0.6988,0.7001,0.7014,0.7023,0.7022,0.7004,0.7002,0.7009,0.7015,0.7019,0.7018,0.6916,0.7,0.6999,0.6998,0.6998,0.6998,0.6999,0.7014,0.7013,0.7025,0.7026,0.703,0.7043,0.7037,0.7048,0.7057,0.7046,0.7064,0.7064,0.7073,0.7075,0.7088,0.7075,0.7085,0.7088,0.7091,0.7095,0.7016,0.709,0.709,0.7089,0.7089,0.7089,0,0.7078,0.7075,0.7086,0.7092,0.7102,0.7083,0.7086,0.7096,0.7111,0.7112,0.7121,0.7138,0.715,0.7144,0.7154,0.7167,0.7159,0.717,0.717,0.717,0.7107,0.71,0.7176,0.7176,0.7176,0.7176,0.7176,0.7176,0.712,0.7145,0.7137,0.7163,0.716,0.7177,0.718,0.7184,0.7185,0.7204,0.7214,0.7209,0.7208,0.7218,0.7229,0.7227,0.7232,0.7247,0.7242,0.7183,0.7174,0.7166,0.716,0.7248,0.7248,0.7304,0.7304,0.7305]}]]